[[{"header":{"parameterUnit":"m.s-1","parameterCategory":1,"la1":30.2991,"la2":30.254,"lo1":-89.0895,"lo2":-89.0444,"dy":0.0017,"dx":0.0017,"nx":28,"ny":28,"refTime":"2024-12-22T03:00:00:Z","depth":0,"parameterNumber":2,"parameterNumberName":"U-component_of_WINDS"},"data":[0,0,0,0,0,0,0,0,0,0,0,0,0,0,0,0,0,0,0,0,0,0,0,0,0,0,0,0,0,0,0,0,0,0,0,0,0,0,0,0,0,0,0,0,0,0,0,0,0,0,0,0,0,0,0,0,0,0,-2.3082,-2.3082,0,-2.3058,-2.3057,-2.3057,-2.2977,-2.2975,-2.2973,-2.2971,-2.2949,-2.295,-2.2951,0,0,0,0,0,0,0,0,0,0,0,0,0,-2.3062,-2.3063,-2.3082,-2.3082,-2.3081,-2.3058,-2.3057,-2.3057,-2.2977,-2.2975,-2.2973,-2.2971,-2.2948,-2.295,-2.2951,0,0,0,0,0,0,0,0,0,0,0,0,0,-2.3058,-2.3063,-2.3082,-2.3038,-2.3034,-2.3058,-2.3057,-2.3057,-2.2977,-2.2975,-2.2972,-2.2969,-2.2948,-2.2949,-2.2951,-2.3015,0,0,-2.2956,-2.2957,0,0,0,0,0,0,0,0,-2.3058,-2.3059,-2.3045,-2.3042,-2.3037,-2.3017,-2.3042,-2.3043,-2.2978,-2.2999,-2.2971,-2.2968,-2.2974,-2.2973,-2.2975,-2.3014,-2.3013,-2.2956,-2.2957,-2.2958,-2.2958,0,0,0,0,0,0,0,-2.3058,-2.3059,-2.3072,-2.3045,-2.304,-2.3021,-2.3018,-2.3042,-2.3002,-2.2997,-2.2991,-2.2989,-2.2971,-2.2973,-2.2974,-2.3013,-2.2956,-2.2958,-2.2959,-2.2959,-2.3107,-2.311,0,0,0,0,0,0,-2.3065,-2.306,-2.3073,-2.3072,-2.3041,-2.3024,-2.302,-2.3026,-2.3002,-2.2995,-2.2992,-2.2986,-2.2972,-2.2972,-2.2972,-2.3048,-2.2958,-2.2959,-2.296,-2.3104,-2.3108,-2.3111,0,0,0,0,0,0,-2.3065,-2.3067,-2.3074,-2.3064,-2.3064,-2.3027,-2.3035,-2.3027,-2.3029,-2.2997,-2.299,-2.3001,-2.297,-2.297,-2.3006,-2.3046,-2.296,-2.2962,-2.3101,-2.3105,-2.3109,-2.3199,0,0,0,0,0,0,-2.3064,-2.3067,-2.309,-2.3065,-2.3065,-2.3107,-2.3038,-2.3029,-2.3032,-2.3024,-2.3004,-2.2998,-2.2968,-2.3004,-2.3007,-2.3047,-2.2963,-2.3097,-2.3103,-2.3108,-2.3192,-2.3206,-2.3217,0,0,0,0,0,-2.3064,-2.3116,-2.3092,-2.3094,-2.3092,-2.3109,-2.3109,-2.3072,-2.3036,-2.3059,-2.3039,-2.2999,-2.3041,-2.3008,-2.3011,-2.3052,-2.3094,-2.3101,-2.3108,-2.3186,-2.3203,-2.3217,0,0,0,0,0,0,-2.3146,-2.3112,-2.3084,-2.313,-2.3123,-2.3096,-2.3124,-2.309,-2.3094,-2.3087,-2.3041,-2.3037,-2.308,-2.3069,-2.3033,-2.3114,-2.3061,-2.3069,-2.312,-2.3135,-2.3148,-2.315,-2.2964,0,0,0,0,0,-2.317,-2.3186,-2.3155,-2.3198,-2.3196,-2.3161,-2.3167,-2.3139,-2.3131,-2.3128,-2.311,-2.3104,-2.3116,-2.3125,-2.3134,-2.319,-2.3186,-2.322,-2.3232,-2.3243,-2.325,-2.3282,-2.3297,-2.3133,-2.3133,-2.3133,0,0,-2.3219,-2.3202,-2.3214,-2.3214,-2.3206,-2.3225,-2.3159,-2.3181,-2.3195,-2.3131,-2.3164,-2.3151,-2.3142,-2.3189,-2.3208,-2.3181,-2.3295,-2.3251,-2.326,-2.3262,-2.329,-2.3306,-2.332,-2.3137,-2.3137,-2.3136,0,0,-2.3317,-2.3305,-2.3341,-2.3334,-2.3322,-2.3299,-2.3308,-2.3286,-2.3275,-2.3307,-2.3261,-2.3277,-2.3298,-2.3294,-2.3295,-2.3395,-2.3359,-2.3399,-2.3466,-2.3497,-2.351,-2.3521,-2.3559,-2.3573,-2.3406,-2.3407,-2.3407,0,-2.3379,-2.3405,-2.3364,-2.339,-2.3392,-2.3335,-2.3372,-2.3368,-2.336,-2.3364,-2.3333,-2.336,-2.3349,-2.3395,-2.342,-2.3422,-2.3432,-2.3401,-2.3511,-2.3522,-2.3532,-2.3568,-2.3582,-2.3412,-2.3411,-2.3411,-2.341,0,-2.3483,-2.3502,-2.3532,-2.3527,-2.3532,-2.3564,-2.3529,-2.354,-2.3512,-2.3493,-2.3528,-2.3514,-2.352,-2.3529,-2.3501,-2.3572,-2.3556,-2.3519,-2.3465,-2.3553,-2.3586,-2.3599,-2.3419,-2.3417,-2.3416,-2.3414,0,0,-2.3632,-2.3605,-2.3617,-2.3614,-2.3598,-2.3613,-2.3643,-2.3649,-2.366,-2.3657,-2.3682,-2.3703,-2.3669,-2.367,-2.3642,-2.3669,-2.3753,-2.3629,-2.3628,-2.3654,-2.3833,-2.3862,-2.3878,-2.3729,-2.3731,-2.3733,-2.3834,0,-2.3727,-2.3776,-2.3741,-2.3796,-2.3814,-2.3762,-2.3788,-2.3782,-2.3765,-2.3779,-2.3761,-2.3777,-2.373,-2.3731,-2.3755,-2.3737,-2.3788,-2.3729,-2.3754,-2.3755,-2.3759,-2.3895,-2.3925,-2.4022,-2.3847,-2.3849,-2.385,0,-2.3844,-2.3847,-2.3905,-2.3887,-2.3893,-2.3918,-2.3922,-2.3935,-2.3928,-2.3914,-2.3917,-2.3883,-2.3913,-2.3859,-2.3901,-2.3862,-2.387,-2.3863,-2.3866,-2.3868,-2.3809,-2.3903,-2.4051,-2.4067,-2.387,-2.3868,-2.3867,0,-2.395,-2.3968,-2.4005,-2.4005,-2.3985,-2.4004,-2.3996,-2.3986,-2.3993,-2.3997,-2.4002,-2.4009,-2.4014,-2.4022,-2.3991,-2.3955,-2.4039,-2.3982,-2.403,-2.4031,-2.405,-2.405,-2.4204,-2.4053,-2.4053,-2.4053,-2.4052,0,-2.406,-2.4098,-2.4053,-2.4076,-2.4117,-2.4078,-2.412,-2.4107,-2.41,-2.4121,-2.4076,-2.4097,-2.4055,-2.4072,-2.4049,-2.4089,-2.409,-2.4082,-2.4075,-2.4087,-2.4088,-2.4092,-2.4085,-2.4056,-2.4056,-2.4055,-2.4054,0,-2.4185,-2.4156,-2.4194,-2.4172,-2.4168,-2.42,-2.4182,-2.4204,-2.4184,-2.4212,-2.4216,-2.4187,-2.4205,-2.4175,-2.419,-2.4174,-2.4231,-2.4213,-2.4233,-2.4229,-2.4279,-2.4276,-2.4443,-2.4464,-2.4298,-2.4299,-2.4301,0,-2.4258,-2.4286,-2.4268,-2.4279,-2.4275,-2.4292,-2.4299,-2.4262,-2.4272,-2.4268,-2.429,-2.4305,-2.4314,-2.4347,-2.4327,-2.4339,-2.4323,-2.4381,-2.4324,-2.4336,-2.4326,-2.4326,-2.433,-2.4393,-2.4395,-2.4396,-2.4397,0,-2.4392,-2.4377,-2.4388,-2.4396,-2.4406,-2.441,-2.4411,-2.4423,-2.4384,-2.4397,-2.4415,-2.4423,-2.4439,-2.4455,-2.4462,-2.4456,-2.4422,-2.4415,-2.4428,-2.444,-2.4452,-2.4448,-2.4267,-2.4412,-2.441,-2.4409,-2.4409,-2.4408,-2.4494,-2.4518,-2.451,-2.4525,-2.4522,-2.4525,-2.4545,-2.4529,-2.4543,-2.4553,-2.453,-2.4555,-2.455,-2.4556,-2.4554,-2.4574,-2.4548,-2.4565,-2.457,-2.4575,-2.4584,-2.4447,-2.4575,-2.4574,-2.4574,-2.4573,-2.4573,0,-2.4627,-2.462,-2.4634,-2.4638,-2.4651,-2.4616,-2.4616,-2.463,-2.4652,-2.465,-2.4661,-2.4683,-2.4699,-2.4682,-2.4695,-2.4715,-2.4699,-2.4719,-2.4718,-2.4718,-2.4605,-2.4594,-2.4732,-2.4732,-2.4732,-2.4732,-2.4732,-2.4732,-2.4698,-2.4737,-2.4721,-2.4759,-2.4751,-2.4775,-2.4778,-2.4782,-2.478,-2.4807,-2.482,-2.4809,-2.4801,-2.4814,-2.4828,-2.4823,-2.4831,-2.4857,-2.4847,-2.4741,-2.4726,-2.4711,-2.4701,-2.4859,-2.4859,-2.4958,-2.4959,-2.496]},{"header":{"parameterUnit":"m.s-1","parameterCategory":1,"la1":30.2991,"la2":30.254,"lo1":-89.0895,"lo2":-89.0444,"dy":0.0017,"dx":0.0017,"nx":28,"ny":28,"refTime":"2024-12-22T03:00:00:Z","depth":0,"parameterNumber":3,"parameterNumberName":"V-component_of_WINDS"},"data":[0,0,0,0,0,0,0,0,0,0,0,0,0,0,0,0,0,0,0,0,0,0,0,0,0,0,0,0,0,0,0,0,0,0,0,0,0,0,0,0,0,0,0,0,0,0,0,0,0,0,0,0,0,0,0,0,0,0,-1.308,-1.3081,0,-1.3167,-1.3168,-1.3169,-1.3144,-1.3143,-1.3141,-1.3139,-1.323,-1.3233,-1.3237,0,0,0,0,0,0,0,0,0,0,0,0,0,-1.2892,-1.2896,-1.308,-1.3081,-1.3082,-1.3167,-1.3168,-1.3169,-1.3145,-1.3142,-1.314,-1.3138,-1.3228,-1.3233,-1.3238,0,0,0,0,0,0,0,0,0,0,0,0,0,-1.2976,-1.2897,-1.308,-1.308,-1.3081,-1.3167,-1.3168,-1.317,-1.3145,-1.3142,-1.314,-1.3137,-1.3227,-1.3232,-1.3239,-1.333,0,0,-1.3257,-1.326,0,0,0,0,0,0,0,0,-1.2971,-1.2983,-1.3079,-1.308,-1.3081,-1.3142,-1.3135,-1.3223,-1.3146,-1.3121,-1.3139,-1.3136,-1.3203,-1.3211,-1.3233,-1.3334,-1.3338,-1.3258,-1.3261,-1.3264,-1.3266,0,0,0,0,0,0,0,-1.2966,-1.2979,-1.3114,-1.308,-1.3082,-1.3076,-1.3085,-1.3152,-1.3176,-1.3123,-1.3121,-1.3132,-1.3203,-1.3227,-1.3235,-1.3339,-1.3258,-1.3263,-1.3267,-1.3269,-1.352,-1.3522,0,0,0,0,0,0,-1.2959,-1.2975,-1.3112,-1.3117,-1.3019,-1.3081,-1.3091,-1.3125,-1.3175,-1.318,-1.3134,-1.313,-1.3218,-1.3228,-1.3238,-1.3349,-1.3264,-1.327,-1.3273,-1.3517,-1.352,-1.3523,0,0,0,0,0,0,-1.2955,-1.2971,-1.3108,-1.3045,-1.3062,-1.3087,-1.3126,-1.3128,-1.3153,-1.3183,-1.3187,-1.3154,-1.3216,-1.3229,-1.3307,-1.3351,-1.3272,-1.3278,-1.3513,-1.3518,-1.3522,-1.3571,0,0,0,0,0,0,-1.295,-1.297,-1.3005,-1.3046,-1.3066,-1.3176,-1.3128,-1.3132,-1.3163,-1.3159,-1.3204,-1.3208,-1.3215,-1.3298,-1.3313,-1.3358,-1.3283,-1.3509,-1.3515,-1.352,-1.3565,-1.3576,-1.3586,0,0,0,0,0,-1.2943,-1.3016,-1.3007,-1.3024,-1.311,-1.3179,-1.319,-1.3196,-1.3167,-1.3202,-1.3222,-1.3207,-1.3343,-1.3306,-1.3323,-1.3371,-1.3507,-1.3513,-1.352,-1.3561,-1.3574,-1.3586,0,0,0,0,0,0,-1.298,-1.3021,-1.3012,-1.31,-1.3136,-1.3174,-1.322,-1.321,-1.3255,-1.325,-1.3255,-1.3265,-1.3345,-1.3365,-1.3323,-1.3462,-1.3421,-1.3431,-1.3446,-1.3459,-1.3469,-1.3464,-1.3288,0,0,0,0,0,-1.2998,-1.305,-1.3083,-1.3158,-1.3176,-1.3195,-1.3225,-1.3226,-1.3264,-1.3279,-1.3304,-1.3341,-1.3393,-1.3426,-1.3475,-1.3567,-1.3577,-1.3608,-1.3618,-1.3626,-1.3636,-1.3687,-1.3701,-1.3546,-1.3545,-1.3545,0,0,-1.3037,-1.3065,-1.3098,-1.3166,-1.3194,-1.3248,-1.3208,-1.3267,-1.3307,-1.3288,-1.3363,-1.3383,-1.3425,-1.351,-1.3549,-1.3529,-1.3681,-1.3635,-1.3641,-1.3647,-1.3695,-1.371,-1.3723,-1.355,-1.3549,-1.3549,0,0,-1.3135,-1.3161,-1.3227,-1.3255,-1.3298,-1.3309,-1.3325,-1.3365,-1.3377,-1.3452,-1.3439,-1.3486,-1.3575,-1.3605,-1.3632,-1.374,-1.3729,-1.3756,-1.381,-1.386,-1.3872,-1.3883,-1.3923,-1.3937,-1.3765,-1.3765,-1.3765,0,-1.3178,-1.3259,-1.3262,-1.3322,-1.3352,-1.3336,-1.3402,-1.343,-1.3486,-1.3508,-1.3484,-1.3595,-1.3622,-1.3714,-1.374,-1.3762,-1.3781,-1.3752,-1.387,-1.3881,-1.3891,-1.3929,-1.3944,-1.3768,-1.3768,-1.3767,-1.3767,0,-1.331,-1.3366,-1.3413,-1.3468,-1.3503,-1.3566,-1.3579,-1.3614,-1.3612,-1.3626,-1.3703,-1.3734,-1.3789,-1.381,-1.3809,-1.3903,-1.389,-1.3868,-1.3828,-1.3909,-1.3945,-1.396,-1.3773,-1.3772,-1.3771,-1.377,0,0,-1.3436,-1.349,-1.3508,-1.3533,-1.3578,-1.3621,-1.3683,-1.3736,-1.3767,-1.3806,-1.3859,-1.3933,-1.3913,-1.3943,-1.3945,-1.3987,-1.4073,-1.3961,-1.3962,-1.3982,-1.418,-1.4197,-1.4214,-1.4064,-1.4067,-1.4069,-1.4177,0,-1.354,-1.3649,-1.3653,-1.3753,-1.3805,-1.3789,-1.3843,-1.3877,-1.3891,-1.3937,-1.3952,-1.4006,-1.3974,-1.3993,-1.4035,-1.4053,-1.4113,-1.4045,-1.4114,-1.4117,-1.4107,-1.4233,-1.4252,-1.4352,-1.4191,-1.4193,-1.4195,0,-1.3676,-1.3719,-1.3824,-1.3861,-1.3883,-1.3932,-1.3981,-1.4025,-1.4062,-1.4069,-1.4103,-1.4098,-1.4161,-1.4116,-1.4204,-1.4158,-1.4186,-1.4199,-1.4203,-1.4212,-1.4163,-1.4247,-1.4384,-1.44,-1.4217,-1.4215,-1.4213,0,-1.376,-1.3843,-1.3917,-1.3939,-1.3983,-1.4018,-1.4038,-1.4073,-1.4104,-1.4147,-1.4168,-1.4217,-1.4245,-1.4283,-1.4291,-1.4257,-1.4379,-1.4335,-1.4388,-1.4388,-1.4417,-1.4416,-1.4563,-1.4431,-1.4431,-1.4431,-1.443,0,-1.3877,-1.3942,-1.3956,-1.4002,-1.4074,-1.4077,-1.4149,-1.4166,-1.4197,-1.4246,-1.4234,-1.4281,-1.4287,-1.4335,-1.4342,-1.4414,-1.4426,-1.4434,-1.4436,-1.4437,-1.4436,-1.4458,-1.4452,-1.4435,-1.4434,-1.4433,-1.4432,0,-1.3984,-1.3996,-1.4075,-1.4111,-1.4121,-1.4173,-1.4203,-1.4247,-1.4259,-1.4321,-1.4336,-1.4355,-1.4411,-1.4422,-1.4488,-1.4492,-1.4579,-1.4572,-1.4567,-1.4567,-1.462,-1.4616,-1.4788,-1.4812,-1.4662,-1.4663,-1.4665,0,-1.4059,-1.4109,-1.4149,-1.4181,-1.4203,-1.4254,-1.4287,-1.429,-1.4325,-1.437,-1.4409,-1.4463,-1.4507,-1.4596,-1.4616,-1.4667,-1.4662,-1.4719,-1.467,-1.467,-1.4666,-1.4664,-1.4669,-1.473,-1.4731,-1.4733,-1.4734,0,-1.4192,-1.4195,-1.4241,-1.429,-1.4329,-1.4367,-1.4404,-1.443,-1.4439,-1.4478,-1.4534,-1.4568,-1.4635,-1.469,-1.4739,-1.476,-1.475,-1.4748,-1.4764,-1.4767,-1.4763,-1.4768,-1.4595,-1.4745,-1.4744,-1.4743,-1.4743,-1.4742,-1.4287,-1.433,-1.4366,-1.4418,-1.4446,-1.448,-1.4523,-1.454,-1.4587,-1.4642,-1.4641,-1.4703,-1.4738,-1.4804,-1.4828,-1.4877,-1.4859,-1.4881,-1.4887,-1.4893,-1.4899,-1.4752,-1.4886,-1.4885,-1.4885,-1.4885,-1.4884,0,-1.442,-1.4442,-1.449,-1.4541,-1.4582,-1.4566,-1.4606,-1.4641,-1.4696,-1.473,-1.4773,-1.4838,-1.489,-1.4914,-1.4965,-1.5,-1.4996,-1.5014,-1.5012,-1.5018,-1.4911,-1.4893,-1.5016,-1.5016,-1.5016,-1.5016,-1.5016,-1.5016,-1.4495,-1.4569,-1.4576,-1.4663,-1.4683,-1.4744,-1.4768,-1.48,-1.4827,-1.49,-1.4943,-1.4957,-1.4987,-1.5041,-1.5088,-1.5093,-1.5114,-1.5134,-1.5138,-1.5038,-1.5025,-1.5012,-1.4996,-1.5138,-1.5138,-1.5241,-1.5242,-1.5243]}]]